Flag for U.S.A. Weather past 2 weeks in Juneau, Alaska, U.S.A.

31 °F

Light snow. Overcast.

Feels Like: 31 °F
Forecast: 21 / 33 °F
Wind: No wind

Location: Juneau International Airport

Current Time: Nov 24, 2015 at 4:25:46 PM

Latest Report: Nov 24, 2015 at 2:53 PM

Visibility: 8 mi

Pressure: 30.52 "Hg

Humidity: 92%

Dew point: 29 °F

Location of JuneauLocation

Historic Weather in Juneau — Graph


Juneau temperature yesterday

Maximum temperature yesterday: 29 °F (at 11:53 PM)
Minimum temperature yesterday: 20 °F (at 7:53 PM)
Average temperature yesterday: 24 °F

Past Weeks' High & Low Weather Summary

High48 °F (Nov 21, 8:53 AM)100% (Nov 10, 6:53 AM)30.53 "Hg (Nov 10, 6:53 AM)
Low20 °F (Nov 23, 7:53 PM)60% (Nov 21, 4:53 PM)28.82 "Hg (Nov 12, 5:53 PM)
Average35 °F88%29.70 "Hg
* Reported Nov 9 2:53 PM — Nov 24 2:53 PM, Juneau, Weather by CustomWeather, © 2015

Note: Actual official high and low records may vary slightly from our data, if they occured in-between our weather recording intervals... More about our weather records


Juneau weather history for previous 24 hours

Time TempWeatherWind HumidityBarometerVisibility
2:53 PM
Tue, Nov 24
31 °FLight snow. Overcast.No wind92%30.52 "Hg8 mi
1:53 PM32 °FLight snow. Overcast.No wind88%30.52 "Hg8 mi
12:53 PM31 °FMore clouds than sun.No wind92%30.53 "Hg10 mi
11:53 AM31 °FMore clouds than sun.No wind92%30.53 "Hg10 mi
10:53 AM31 °FOvercast.No wind89%30.53 "Hg10 mi
9:53 AM31 °FMostly cloudy.5 mph85%30.52 "Hg10 mi
8:53 AM31 °FMostly cloudy.5 mph85%30.51 "Hg10 mi
7:53 AM31 °FMostly cloudy.8 mph82%30.50 "Hg10 mi
6:53 AM30 °FOvercast.7 mph85%30.50 "Hg10 mi
5:53 AM30 °FLight snow. Mostly cloudy.8 mph85%30.49 "Hg10 mi
4:53 AM30 °FMostly cloudy.7 mph82%30.49 "Hg10 mi
3:53 AM30 °FMostly cloudy.7 mph79%30.48 "Hg10 mi
2:53 AM30 °FMostly cloudy.8 mph79%30.47 "Hg10 mi
1:53 AM30 °FMostly cloudy.10 mph75%30.47 "Hg10 mi
12:53 AM28 °FMostly cloudy.7 mph85%30.47 "Hg10 mi
11:53 PM
Mon, Nov 23
29 °FMostly cloudy.5 mph82%30.47 "Hg10 mi
10:53 PM28 °FMostly cloudy.5 mph81%30.47 "Hg10 mi
9:53 PM25 °FPassing clouds.3 mph92%30.46 "Hg10 mi
8:53 PM24 °FMostly cloudy.No wind88%30.45 "Hg10 mi
7:53 PM20 °FPassing clouds.No wind92%30.45 "Hg10 mi
6:53 PM22 °FClear.6 mph92%30.45 "Hg10 mi
5:53 PM22 °FClear.3 mph92%30.44 "Hg10 mi
4:53 PM22 °FPassing clouds.No wind92%30.44 "Hg10 mi
Weather by CustomWeather, © 2015

See weather overviewHow to use our weather pages